This is the latest recevied weather packets stored in our database for station/object K7SKM. If no packets are shown the sender has not sent any weather packets the latest 10 day(s).
| Time | Temp. | Humidity | Pressure | Rain* | Wind** | Luminosity | Snow |
|---|---|---|---|---|---|---|---|
| 1777515609 | 18.33° C | 54% | 1026.1 hPa | 0 mm | - | 21 W/m² | - |
| 1777515306 | 18.33° C | 53% | 1026 hPa | 0 mm | - | 22 W/m² | - |
| 1777515001 | 18.33° C | 53% | 1026.2 hPa | 0 mm | - | 23 W/m² | - |
| 1777514698 | 18.33° C | 53% | 1026 hPa | 0 mm | - | 24 W/m² | - |
| 1777514395 | 18.89° C | 53% | 1026.1 hPa | 0 mm | - | 25 W/m² | - |
| 1777514092 | 18.89° C | 52% | 1026 hPa | 0 mm | - | 26 W/m² | - |
| 1777513789 | 18.89° C | 52% | 1026.1 hPa | 0 mm | - | 27 W/m² | - |
| 1777513486 | 18.89° C | 51% | 1026 hPa | 0 mm | - | 28 W/m² | - |
| 1777513183 | 19.44° C | 50% | 1026.1 hPa | 0 mm | - | 29 W/m² | - |
| 1777512879 | 19.44° C | 50% | 1026.2 hPa | 0 mm | - | 31 W/m² | - |
| 1777512576 | 19.44° C | 50% | 1026.1 hPa | 0 mm | - | 34 W/m² | - |
| 1777512272 | 19.44° C | 49% | 1026.2 hPa | 0 mm | - | 32 W/m² | - |
| 1777511969 | 19.44° C | 48% | 1026.2 hPa | 0 mm | - | 37 W/m² | - |
| 1777511667 | 20° C | 48% | 1026.2 hPa | 0 mm | - | 36 W/m² | - |
| 1777511365 | 20.56° C | 46% | 1026.4 hPa | 0 mm | - | 42 W/m² | - |
| 1777511060 | 20° C | 46% | 1026.4 hPa | 0 mm | - | 247 W/m² | - |
| 1777510756 | 20.56° C | 45% | 1026.4 hPa | 0 mm | - | 293 W/m² | - |
| 1777510454 | 20.56° C | 46% | 1026.3 hPa | 0 mm | - | 298 W/m² | - |
| 1777510149 | 21.11° C | 46% | 1026.3 hPa | 0 mm | - | 305 W/m² | - |
| 1777509847 | 21.11° C | 45% | 1026.5 hPa | 0 mm | - | 311 W/m² | - |
| 1777509541 | 20.56° C | 47% | 1026.3 hPa | 0 mm | - | 313 W/m² | - |
| 1777509239 | 20° C | 48% | 1026.4 hPa | 0 mm | - | 320 W/m² | - |
| 1777508936 | 21.11° C | 46% | 1026.6 hPa | 0 mm | - | 329 W/m² | - |
| 1777508632 | 21.11° C | 47% | 1026.2 hPa | 0 mm | - | 330 W/m² | - |
| 1777508330 | 21.11° C | 46% | 1026.4 hPa | 0 mm | - | 336 W/m² | - |
* Rain latest hour (hover to see other rain measurements)
** Current wind speed in m/s (hover to see current wind gust speed)